[[{"header":{"parameterUnit":"m.s-1","parameterCategory":1,"la1":30.2991,"la2":30.254,"lo1":-89.0895,"lo2":-89.0444,"dy":0.0017,"dx":0.0017,"nx":28,"ny":28,"refTime":"2025-12-29T03:00:00:Z","depth":0,"parameterNumber":2,"parameterNumberName":"U-component_of_WINDS"},"data":[0,0,0,0,0,0,0,0,0,0,0,0,0,0,0,0,0,0,0,0,0,0,0,0,0,0,0,0,0,0,0,0,0,0,0,0,0,0,0,0,0,0,0,0,0,0,0,0,0,0,0,0,0,0,0,0,0,0,1.3672,1.3671,0,1.3663,1.3663,1.3663,1.3658,1.3658,1.3658,1.3658,1.3647,1.3647,1.3646,0,0,0,0,0,0,0,0,0,0,0,0,0,1.3682,1.3682,1.3672,1.3671,1.3671,1.3663,1.3663,1.3663,1.3658,1.3658,1.3658,1.3658,1.3647,1.3647,1.3646,0,0,0,0,0,0,0,0,0,0,0,0,0,1.3676,1.3682,1.3672,1.3668,1.3667,1.3663,1.3663,1.3663,1.3658,1.3658,1.3658,1.3658,1.3647,1.3647,1.3646,1.3644,0,0,1.3645,1.3645,0,0,0,0,0,0,0,0,1.3676,1.3676,1.3669,1.3668,1.3668,1.3662,1.3663,1.3657,1.3658,1.3661,1.3658,1.3658,1.3652,1.3651,1.3649,1.3644,1.3643,1.3645,1.3645,1.3645,1.3644,0,0,0,0,0,0,0,1.3677,1.3676,1.3668,1.3668,1.3668,1.3666,1.3665,1.3662,1.3657,1.3661,1.3661,1.366,1.3651,1.365,1.3649,1.3643,1.3645,1.3645,1.3644,1.3644,1.3637,1.3637,0,0,0,0,0,0,1.3678,1.3676,1.3668,1.3668,1.3672,1.3666,1.3665,1.3663,1.3657,1.3656,1.366,1.366,1.365,1.3649,1.3649,1.3646,1.3645,1.3644,1.3644,1.3637,1.3637,1.3637,0,0,0,0,0,0,1.3678,1.3677,1.3669,1.3672,1.3671,1.3666,1.3664,1.3663,1.3662,1.3656,1.3655,1.3659,1.365,1.3649,1.3646,1.3646,1.3644,1.3644,1.3636,1.3637,1.3637,1.3641,0,0,0,0,0,0,1.3679,1.3677,1.3677,1.3672,1.3671,1.3666,1.3664,1.3663,1.3661,1.3661,1.3655,1.3654,1.365,1.3646,1.3645,1.3645,1.3643,1.3636,1.3637,1.3637,1.3641,1.3641,1.3642,0,0,0,0,0,1.3679,1.3678,1.3677,1.3676,1.367,1.3666,1.3666,1.3662,1.3661,1.366,1.3657,1.3654,1.3646,1.3646,1.3645,1.3645,1.3636,1.3636,1.3637,1.3641,1.3641,1.3642,0,0,0,0,0,0,1.3682,1.3677,1.3676,1.3673,1.3671,1.3666,1.3664,1.3663,1.3659,1.3659,1.3654,1.3653,1.365,1.3647,1.3647,1.3643,1.3641,1.3641,1.3645,1.3645,1.3645,1.3646,1.3643,0,0,0,0,0,1.3682,1.368,1.3676,1.3674,1.3673,1.3669,1.3667,1.3665,1.3662,1.366,1.3656,1.3653,1.3649,1.3647,1.3644,1.3641,1.364,1.364,1.3641,1.3641,1.3641,1.3639,1.364,1.3637,1.3637,1.3637,0,0,1.3683,1.368,1.3679,1.3675,1.3672,1.367,1.3668,1.3666,1.3664,1.3659,1.3656,1.3654,1.3649,1.3646,1.3645,1.3644,1.3641,1.3641,1.3641,1.3641,1.3639,1.364,1.364,1.3637,1.3637,1.3637,0,0,1.3683,1.3681,1.3679,1.3677,1.3674,1.3671,1.3671,1.3667,1.3665,1.3662,1.3659,1.3657,1.3651,1.3648,1.3646,1.3646,1.3644,1.3645,1.3647,1.3646,1.3646,1.3646,1.3646,1.3646,1.3645,1.3645,1.3645,0,1.3684,1.3681,1.3679,1.3677,1.3675,1.3672,1.3671,1.3668,1.3664,1.3662,1.3662,1.3655,1.3652,1.3649,1.3649,1.3647,1.3646,1.3646,1.3646,1.3646,1.3647,1.3647,1.3647,1.3646,1.3645,1.3645,1.3645,0,1.3683,1.3681,1.368,1.3676,1.3675,1.3673,1.367,1.3668,1.3667,1.3664,1.3661,1.3658,1.3654,1.3653,1.3651,1.3649,1.3649,1.3647,1.3645,1.3647,1.3647,1.3647,1.3646,1.3646,1.3646,1.3646,0,0,1.3683,1.3679,1.3679,1.3678,1.3674,1.3673,1.3671,1.3668,1.3667,1.3664,1.3662,1.3658,1.3657,1.3655,1.3652,1.3651,1.3652,1.365,1.365,1.365,1.3651,1.3652,1.3652,1.3651,1.3651,1.3651,1.3651,0,1.3682,1.368,1.3678,1.3676,1.3674,1.3672,1.367,1.3668,1.3666,1.3664,1.3662,1.3659,1.3658,1.3656,1.3655,1.3652,1.3652,1.3652,1.3649,1.3649,1.3649,1.3652,1.3653,1.3653,1.3651,1.3651,1.3651,0,1.3681,1.3679,1.3677,1.3675,1.3674,1.3673,1.367,1.3669,1.3666,1.3665,1.3663,1.3661,1.3659,1.3658,1.3655,1.3655,1.3653,1.3652,1.3652,1.3651,1.365,1.3651,1.3653,1.3653,1.3651,1.3651,1.3651,0,1.3682,1.3679,1.3677,1.3676,1.3673,1.3673,1.3671,1.3669,1.3668,1.3665,1.3664,1.3662,1.366,1.3658,1.3655,1.3655,1.3653,1.3652,1.3651,1.3652,1.365,1.365,1.3652,1.365,1.365,1.365,1.365,0,1.3681,1.3679,1.3678,1.3677,1.3675,1.3673,1.3672,1.367,1.3668,1.3667,1.3665,1.3664,1.366,1.3658,1.3656,1.3654,1.3654,1.3652,1.3652,1.3652,1.3652,1.3651,1.365,1.365,1.365,1.365,1.365,0,1.3681,1.3679,1.3678,1.3676,1.3675,1.3674,1.3672,1.3671,1.367,1.3668,1.3667,1.3665,1.3663,1.366,1.3657,1.3655,1.3654,1.3653,1.3655,1.3654,1.3654,1.3654,1.3655,1.3655,1.3653,1.3653,1.3653,0,1.368,1.3679,1.3677,1.3677,1.3676,1.3674,1.3673,1.3672,1.3671,1.3668,1.3668,1.3666,1.3664,1.3661,1.3658,1.3656,1.3655,1.3655,1.3654,1.3655,1.3654,1.3654,1.3654,1.3655,1.3655,1.3655,1.3655,0,1.3679,1.3679,1.3678,1.3676,1.3676,1.3674,1.3673,1.3672,1.3671,1.3669,1.3668,1.3666,1.3664,1.3662,1.3659,1.3658,1.3656,1.3656,1.3655,1.3656,1.3657,1.3656,1.3655,1.3655,1.3655,1.3655,1.3655,1.3655,1.3678,1.3678,1.3677,1.3676,1.3675,1.3674,1.3673,1.3672,1.3671,1.3669,1.3668,1.3666,1.3665,1.3661,1.366,1.3658,1.3658,1.3657,1.3657,1.3657,1.3657,1.3658,1.3658,1.3658,1.3658,1.3658,1.3658,0,1.3677,1.3677,1.3676,1.3675,1.3674,1.3674,1.3672,1.3672,1.367,1.3669,1.3668,1.3666,1.3665,1.3663,1.3661,1.366,1.3659,1.3659,1.3659,1.3659,1.3658,1.3658,1.366,1.366,1.366,1.366,1.366,1.366,1.3676,1.3675,1.3675,1.3674,1.3673,1.3672,1.3672,1.3671,1.367,1.3668,1.3667,1.3666,1.3665,1.3663,1.3662,1.3661,1.366,1.3661,1.366,1.3659,1.3659,1.3659,1.3659,1.3661,1.3661,1.3661,1.3661,1.3661]},{"header":{"parameterUnit":"m.s-1","parameterCategory":1,"la1":30.2991,"la2":30.254,"lo1":-89.0895,"lo2":-89.0444,"dy":0.0017,"dx":0.0017,"nx":28,"ny":28,"refTime":"2025-12-29T03:00:00:Z","depth":0,"parameterNumber":3,"parameterNumberName":"V-component_of_WINDS"},"data":[0,0,0,0,0,0,0,0,0,0,0,0,0,0,0,0,0,0,0,0,0,0,0,0,0,0,0,0,0,0,0,0,0,0,0,0,0,0,0,0,0,0,0,0,0,0,0,0,0,0,0,0,0,0,0,0,0,0,-5.751,-5.7512,0,-5.7701,-5.7703,-5.7706,-5.7649,-5.7645,-5.7641,-5.7638,-5.783,-5.7839,-5.7847,0,0,0,0,0,0,0,0,0,0,0,0,0,-5.7091,-5.7099,-5.751,-5.7512,-5.7514,-5.7701,-5.7704,-5.7706,-5.765,-5.7645,-5.764,-5.7636,-5.7827,-5.7838,-5.7848,0,0,0,0,0,0,0,0,0,0,0,0,0,-5.7277,-5.7102,-5.7509,-5.7509,-5.7511,-5.77,-5.7704,-5.7707,-5.7651,-5.7645,-5.7639,-5.7633,-5.7824,-5.7837,-5.785,-5.805,0,0,-5.789,-5.7896,0,0,0,0,0,0,0,0,-5.7266,-5.7292,-5.7507,-5.7509,-5.7512,-5.7645,-5.7627,-5.7822,-5.7652,-5.7598,-5.7637,-5.7631,-5.7773,-5.779,-5.7839,-5.8059,-5.8067,-5.7891,-5.7899,-5.7905,-5.7909,0,0,0,0,0,0,0,-5.7254,-5.7284,-5.7585,-5.751,-5.7513,-5.7498,-5.7518,-5.7663,-5.7716,-5.7602,-5.7598,-5.7622,-5.7773,-5.7826,-5.7843,-5.807,-5.7891,-5.7903,-5.7911,-5.7916,-5.8463,-5.8469,0,0,0,0,0,0,-5.7239,-5.7273,-5.7579,-5.7591,-5.7372,-5.751,-5.7532,-5.7608,-5.7715,-5.7725,-5.7627,-5.7619,-5.7807,-5.7828,-5.785,-5.8091,-5.7905,-5.7917,-5.7925,-5.8456,-5.8464,-5.8471,0,0,0,0,0,0,-5.7231,-5.7267,-5.7571,-5.7431,-5.7469,-5.7524,-5.761,-5.7615,-5.7668,-5.7733,-5.7742,-5.7672,-5.7803,-5.7831,-5.8001,-5.8097,-5.7923,-5.7935,-5.8448,-5.8459,-5.8468,-5.8575,0,0,0,0,0,0,-5.7219,-5.7264,-5.7342,-5.7434,-5.7477,-5.7721,-5.7616,-5.7623,-5.7692,-5.7683,-5.7778,-5.7788,-5.78,-5.7981,-5.8014,-5.8112,-5.7946,-5.844,-5.8453,-5.8465,-5.8563,-5.8587,-5.8608,0,0,0,0,0,-5.7204,-5.7364,-5.7347,-5.7384,-5.7575,-5.7727,-5.7751,-5.7764,-5.77,-5.7778,-5.7819,-5.7785,-5.8081,-5.7999,-5.8035,-5.8139,-5.8434,-5.8449,-5.8464,-5.8553,-5.8582,-5.8607,0,0,0,0,0,0,-5.7282,-5.7376,-5.7358,-5.7552,-5.7632,-5.7717,-5.7816,-5.7795,-5.7893,-5.7881,-5.7891,-5.7912,-5.8086,-5.8129,-5.8036,-5.8337,-5.8248,-5.8271,-5.8303,-5.8332,-5.8354,-5.834,-5.7957,0,0,0,0,0,-5.7322,-5.7438,-5.7514,-5.7678,-5.7719,-5.7761,-5.7827,-5.783,-5.7912,-5.7945,-5.7999,-5.808,-5.819,-5.8263,-5.8369,-5.8569,-5.8588,-5.8657,-5.868,-5.8698,-5.8717,-5.8825,-5.8857,-5.852,-5.852,-5.852,0,0,-5.7405,-5.7471,-5.7544,-5.7695,-5.7757,-5.7876,-5.7789,-5.7919,-5.8007,-5.7964,-5.8128,-5.8171,-5.8261,-5.8446,-5.853,-5.8487,-5.8815,-5.8717,-5.8731,-5.8741,-5.8844,-5.8875,-5.8904,-5.853,-5.8528,-5.8527,0,0,-5.7618,-5.768,-5.7824,-5.7888,-5.7983,-5.8009,-5.8044,-5.8132,-5.8159,-5.8324,-5.8294,-5.8398,-5.8589,-5.8654,-5.8713,-5.8949,-5.8921,-5.8983,-5.91,-5.9205,-5.9232,-5.9255,-5.9339,-5.9369,-5.9002,-5.9003,-5.9003,0,-5.771,-5.7889,-5.79,-5.8032,-5.8099,-5.8067,-5.8212,-5.8273,-5.8397,-5.8444,-5.8394,-5.8633,-5.8691,-5.8891,-5.8949,-5.8997,-5.9035,-5.8973,-5.9227,-5.9251,-5.9273,-5.9353,-5.9385,-5.901,-5.9009,-5.9008,-5.9007,0,-5.7996,-5.8121,-5.8225,-5.8347,-5.8426,-5.8564,-5.8594,-5.8672,-5.8668,-5.8699,-5.8866,-5.8935,-5.9054,-5.9101,-5.9098,-5.93,-5.9271,-5.9224,-5.9134,-5.9312,-5.9387,-5.9418,-5.902,-5.9017,-5.9015,-5.9013,0,0,-5.8264,-5.839,-5.8428,-5.8483,-5.8585,-5.8681,-5.8817,-5.8934,-5.9,-5.9087,-5.92,-5.9362,-5.932,-5.9386,-5.9389,-5.9482,-5.9664,-5.9424,-5.9426,-5.9466,-5.989,-5.9924,-5.996,-5.9645,-5.9651,-5.9656,-5.9882,0,-5.8486,-5.8726,-5.8739,-5.8956,-5.9071,-5.9041,-5.9159,-5.9234,-5.9267,-5.9367,-5.9402,-5.9517,-5.9453,-5.9492,-5.9582,-5.9623,-5.9749,-5.9606,-5.975,-5.9755,-5.9728,-5.9999,-6.0036,-6.0247,-5.9912,-5.9917,-5.9921,0,-5.8776,-5.8873,-5.9102,-5.9187,-5.9236,-5.9342,-5.945,-5.9547,-5.963,-5.9647,-5.9721,-5.9711,-5.9848,-5.9754,-5.9942,-5.9845,-5.9904,-5.9933,-5.9941,-5.9955,-5.9848,-6.002,-6.0314,-6.0346,-5.9967,-5.9963,-5.996,0,-5.8948,-5.9135,-5.9297,-5.9344,-5.9448,-5.9523,-5.9569,-5.9647,-5.9716,-5.981,-5.9855,-5.9963,-6.0022,-6.0106,-6.0125,-6.0054,-6.0313,-6.022,-6.033,-6.033,-6.0386,-6.0382,-6.0694,-6.0424,-6.0424,-6.0423,-6.0423,0,-5.9194,-5.9336,-5.9375,-5.9474,-5.9631,-5.9644,-5.9798,-5.9839,-5.9909,-6.0014,-5.9995,-6.0094,-6.0113,-6.0215,-6.0231,-6.0384,-6.0411,-6.0428,-6.043,-6.043,-6.0428,-6.0468,-6.0454,-6.0432,-6.043,-6.0428,-6.0427,0,-5.9413,-5.9446,-5.9619,-5.9703,-5.9728,-5.9839,-5.991,-6.0005,-6.0034,-6.0168,-6.02,-6.0247,-6.0366,-6.0393,-6.0535,-6.0546,-6.0727,-6.0716,-6.07,-6.0699,-6.0807,-6.0797,-6.1156,-6.1203,-6.0903,-6.0906,-6.0908,0,-5.9568,-5.9676,-5.9772,-5.9842,-5.9892,-6.0005,-6.0075,-6.0091,-6.0166,-6.0268,-6.035,-6.0468,-6.0563,-6.0755,-6.0801,-6.0909,-6.0899,-6.1018,-6.0915,-6.0911,-6.0901,-6.0894,-6.0905,-6.1037,-6.1041,-6.1043,-6.1045,0,-5.984,-5.985,-5.9954,-6.0063,-6.0148,-6.0235,-6.0317,-6.0375,-6.0402,-6.0486,-6.0609,-6.0683,-6.0828,-6.0945,-6.1053,-6.1099,-6.1077,-6.1077,-6.1108,-6.1109,-6.1095,-6.1104,-6.0753,-6.1069,-6.1066,-6.1065,-6.1063,-6.1063,-6.0032,-6.0126,-6.0208,-6.0323,-6.0387,-6.0464,-6.0557,-6.0598,-6.0701,-6.0822,-6.0824,-6.0958,-6.1037,-6.1181,-6.1233,-6.1337,-6.13,-6.1345,-6.1357,-6.1368,-6.1377,-6.1079,-6.1357,-6.1356,-6.1355,-6.1355,-6.1354,0,-6.0302,-6.0353,-6.0459,-6.0575,-6.0666,-6.0638,-6.0727,-6.0804,-6.0922,-6.0999,-6.1093,-6.1233,-6.1346,-6.14,-6.1512,-6.1584,-6.1577,-6.1613,-6.1607,-6.1618,-6.1404,-6.1366,-6.1617,-6.1617,-6.1617,-6.1617,-6.1617,-6.1617,-6.0453,-6.0611,-6.0631,-6.082,-6.0869,-6.1001,-6.1054,-6.1125,-6.1186,-6.1344,-6.1438,-6.1473,-6.154,-6.1656,-6.1758,-6.177,-6.1812,-6.1853,-6.1861,-6.166,-6.1633,-6.1608,-6.1572,-6.1862,-6.1863,-6.2067,-6.2068,-6.207]}]]